GFSSGP_850_spd_000.txt.gz
Wind_Speed
12 11 7 3 7 6 8 2 5 6 4 2 4 3 5 6 5 6 1 3 3 4 8 10 10 14 17 17 17 18 19 19 20 22 23 22 21 18 16 17 17 19 18 14 12 12 12 13 13
10 7 3 5 7 8 3 3 6 7 2 4 4 4 5 4 4 3 3 5 4 4 8 8 13 13 16 16 18 19 20 21 22 24 25 25 22 21 18 17 18 18 18 15 14 12 12 11 14
8 5 11 5 6 9 5 4 5 3 6 6 4 4 1 1 4 3 4 5 5 6 7 10 14 13 14 18 19 21 21 22 23 25 26 26 23 23 23 18 19 17 16 15 14 11 12 14 14
4 5 7 9 8 1 7 9 7 7 5 8 7 5 2 5 4 5 5 5 6 7 10 13 15 15 17 20 21 22 23 24 25 25 26 26 27 25 24 23 18 20 16 15 14 13 13 14 14
4 8 10 8 8 5 7 10 9 9 7 4 6 4 3 4 7 6 5 6 7 9 12 12 18 19 19 21 22 23 24 26 26 27 27 28 29 27 26 25 21 20 19 17 17 16 17 16 16
11 6 9 11 3 4 7 7 8 9 8 3 5 6 5 5 6 6 7 7 9 10 14 14 14 18 20 22 23 25 25 26 28 30 32 33 34 29 27 26 23 20 19 20 19 17 20 16 15
14 8 14 12 11 9 4 6 9 8 9 8 4 6 2 7 9 9 9 10 10 12 12 10 14 16 20 21 22 23 25 28 32 34 33 28 29 27 25 26 24 20 17 16 18 19 20 17 17
12 9 16 13 12 10 3 4 6 9 9 3 6 5 6 9 9 10 7 5 5 7 8 11 14 13 14 13 21 23 26 27 29 31 29 24 23 22 22 25 22 19 20 16 15 18 18 21 18
8 11 12 12 13 12 6 11 4 5 10 8 9 9 5 7 7 8 7 6 6 9 11 12 12 12 15 15 17 21 23 23 22 19 19 21 14 13 14 18 21 23 22 18 14 18 21 21 20
13 12 15 9 12 14 18 11 15 7 8 12 10 9 11 9 9 9 8 7 8 9 11 12 11 15 18 13 15 16 16 19 14 13 14 15 13 13 15 17 17 19 21 18 16 18 20 20 17
15 15 14 15 16 19 21 15 12 12 12 11 10 12 12 11 12 11 9 7 7 8 10 10 12 17 17 12 14 12 16 14 12 11 10 11 13 15 14 14 18 19 19 17 14 14 16 15 19
15 18 19 18 14 14 9 8 10 14 14 4 7 7 14 15 14 11 8 5 6 8 9 9 11 16 16 14 10 13 13 12 10 8 7 6 6 10 13 17 14 21 21 18 15 14 16 19 19
14 18 16 16 14 10 5 9 9 12 9 11 9 11 15 15 13 10 7 4 5 8 9 9 13 13 12 11 9 11 11 8 9 9 7 6 5 5 6 10 14 20 19 17 15 13 14 17 18
14 12 15 13 12 7 8 4 4 9 4 10 12 14 14 15 13 10 7 4 4 6 7 9 10 10 9 9 10 10 10 8 8 7 6 7 5 4 1 4 10 16 16 14 14 13 15 16 17
13 14 13 14 11 6 6 9 10 11 5 11 15 14 15 15 13 11 7 4 3 4 6 8 9 8 8 10 10 9 8 10 8 7 7 7 5 3 2 6 9 12 16 16 13 14 16 17 16
14 15 15 13 10 6 7 10 10 9 10 15 15 17 17 16 15 11 8 5 2 2 5 8 7 8 10 10 10 9 9 9 9 8 8 8 7 6 4 7 11 13 14 14 14 15 16 17 18
15 15 19 10 12 6 11 13 8 10 12 16 16 18 18 17 16 13 10 6 1 2 4 6 7 8 10 9 10 10 10 9 8 6 7 8 9 9 7 7 10 13 13 14 16 17 17 18 17
16 13 12 13 10 10 12 14 14 17 16 15 17 19 20 20 18 15 12 7 2 1 3 5 6 9 11 10 12 12 10 8 7 8 11 9 8 9 9 9 11 13 13 14 15 18 17 16 16
13 12 14 11 6 10 15 15 15 18 21 16 18 19 22 20 17 15 13 8 4 1 2 4 5 8 10 8 11 13 12 8 6 8 11 12 11 8 10 10 13 12 12 12 15 15 16 16 17
15 17 17 11 10 9 16 17 18 17 19 16 16 19 21 19 19 17 14 9 5 2 1 2 4 7 10 8 11 11 8 7 10 14 9 9 6 9 10 13 14 14 13 13 14 14 13 14 17
19 17 14 12 12 12 16 18 13 8 11 13 14 15 18 22 23 20 17 12 7 4 3 0 3 7 10 11 9 12 9 8 8 14 22 21 5 5 9 13 14 14 13 13 16 15 14 17 19
20 15 15 14 13 12 4 15 14 11 12 12 14 15 17 21 22 21 18 14 10 6 5 2 3 7 8 11 9 12 9 6 5 8 14 15 15 9 9 12 15 16 14 16 18 17 17 19 21
16 13 12 14 12 12 16 8 10 6 10 9 8 13 16 20 24 23 20 15 11 9 7 3 2 5 8 10 11 10 10 10 4 5 11 18 12 14 12 12 14 15 16 18 20 20 18 20 25
14 8 9 8 11 12 15 10 10 3 4 6 6 1 11 18 23 22 19 16 13 10 8 4 2 4 5 6 10 12 14 14 11 2 3 12 13 12 9 11 15 13 16 19 20 19 23 26 21
16 13 9 10 9 11 2 6 11 10 8 9 9 6 9 19 25 24 22 18 15 13 10 6 3 3 4 5 7 10 12 15 15 9 5 10 9 12 14 14 16 15 16 20 20 24 24 27 24
19 17 11 10 11 11 6 6 4 2 6 7 5 5 11 21 25 25 23 18 15 14 12 8 4 4 4 6 6 8 12 11 14 14 14 13 10 13 13 15 19 19 17 22 22 23 25 24 22
14 15 16 15 14 8 12 6 11 6 7 4 3 6 15 23 25 25 22 18 16 15 13 10 6 5 5 5 6 7 10 12 15 14 15 16 19 15 10 15 22 19 18 21 22 24 22 18 19
21 15 10 10 13 13 9 7 6 3 5 4 7 10 17 23 24 24 22 19 17 15 13 11 8 5 6 5 6 6 8 9 11 11 13 11 12 16 15 14 18 16 17 19 20 21 20 18 15
12 16 13 13 13 12 9 5 5 2 3 2 8 13 20 23 25 25 22 19 18 16 14 11 10 7 7 6 6 7 8 8 9 10 12 14 15 18 15 15 13 14 17 21 19 18 16 14 16
22 22 21 11 15 10 10 9 4 4 1 1 10 16 22 23 24 23 22 21 20 18 15 12 11 9 8 8 7 6 8 8 10 11 12 13 17 19 18 17 18 19 16 16 16 18 18 16 17

GFSSGP_850_spd_003.txt.gz
Wind_Speed
12 12 6 6 7 8 13 3 6 10 3 4 3 7 12 11 9 5 4 2 1 2 6 10 8 8 12 14 16 17 17 18 20 21 21 20 21 20 18 17 18 17 16 14 14 12 14 13 15
11 7 5 12 8 12 0 8 7 10 10 2 4 5 7 5 6 2 2 3 3 3 5 7 13 12 15 15 16 18 19 20 23 23 21 21 22 25 22 18 16 18 17 15 14 13 13 13 14
10 5 12 10 12 13 10 8 10 8 2 9 6 2 5 7 2 2 1 4 4 4 6 8 13 16 15 15 17 20 21 23 24 24 24 23 24 24 24 23 19 19 18 15 15 14 13 14 14
7 7 11 9 17 9 6 13 11 13 5 6 7 8 4 4 3 1 2 3 5 6 7 12 17 18 18 19 21 21 22 23 24 25 26 26 27 26 25 25 24 20 18 17 16 16 14 14 15
8 12 11 16 15 9 4 11 11 9 9 4 1 7 1 5 4 2 3 4 6 8 8 8 17 19 18 21 23 22 24 26 27 28 27 27 27 26 26 26 26 24 21 19 19 17 17 17 17
12 15 12 14 7 8 4 5 8 12 8 3 5 7 3 7 4 4 4 5 5 6 6 6 13 16 16 18 20 23 25 26 27 28 30 30 31 32 33 30 27 25 23 20 20 20 18 19 19
16 11 16 16 16 13 5 4 12 12 13 8 3 8 2 4 5 7 6 6 5 4 4 6 8 12 17 17 19 21 23 26 28 30 33 34 33 32 32 27 25 25 24 21 23 21 20 20 17
18 12 20 16 13 12 12 1 13 8 9 5 5 6 10 4 9 6 6 6 5 6 5 8 11 12 13 12 18 26 22 24 28 29 30 32 28 24 23 23 24 24 22 20 18 17 21 20 19
16 13 15 18 16 10 14 12 5 4 12 8 7 9 4 5 8 8 8 8 7 8 9 11 11 11 11 12 14 19 18 22 20 17 19 20 13 13 17 15 21 23 22 22 19 17 20 21 22
19 13 20 15 14 12 18 19 20 7 11 10 10 10 7 8 10 10 10 8 7 9 9 11 11 11 10 10 12 14 16 20 17 14 14 14 13 13 14 16 16 22 23 23 21 17 19 25 14
23 18 18 18 18 16 17 19 12 9 10 9 4 8 15 13 13 13 11 8 6 6 7 9 11 10 11 10 12 12 14 20 15 15 10 13 13 9 14 14 15 17 21 20 19 16 16 17 15
21 22 23 19 23 19 13 12 10 9 11 7 7 7 9 14 14 14 12 9 5 6 7 8 9 9 10 10 10 11 14 14 11 11 10 11 7 11 11 13 13 18 19 18 20 18 13 16 18
18 18 25 27 20 18 16 10 11 12 8 7 7 10 13 15 15 13 12 9 6 5 6 7 8 8 10 10 9 13 13 9 9 10 11 9 11 13 9 9 14 17 20 22 19 14 17 16 18
26 29 22 20 20 18 12 17 7 13 3 6 11 12 13 14 16 14 12 8 6 5 5 6 6 7 7 10 14 14 12 10 9 10 9 10 9 9 9 8 12 18 23 21 20 16 12 19 19
25 19 20 19 21 17 14 17 16 14 11 12 12 14 15 16 15 16 13 9 7 5 5 5 6 7 8 12 13 14 12 12 10 10 10 10 12 9 6 6 8 13 20 21 18 18 15 17 18
19 23 19 21 23 17 11 20 16 15 14 14 15 16 14 16 16 15 13 10 7 4 5 5 5 6 8 10 11 13 11 12 11 10 13 13 13 11 7 6 8 10 17 17 17 16 16 18 19
20 18 22 20 12 14 17 20 19 9 13 15 16 16 15 16 17 16 14 10 7 4 4 3 5 5 8 9 9 11 13 10 11 11 11 14 13 11 9 7 8 10 13 17 16 19 18 20 20
21 23 20 17 14 13 16 19 19 19 19 19 21 16 15 18 19 18 15 11 8 5 5 2 3 5 9 10 10 11 11 9 8 9 8 7 12 11 10 9 10 12 13 15 18 21 20 19 19
22 20 17 13 7 14 10 17 20 23 18 21 23 17 16 18 17 18 16 13 9 6 5 3 3 5 7 8 12 11 9 6 8 10 11 8 10 11 10 9 11 13 13 14 17 20 19 18 18
24 20 18 15 14 9 13 19 20 20 23 25 23 19 14 17 19 19 18 15 11 7 6 3 2 4 5 6 9 8 7 2 7 10 13 4 3 10 11 12 10 10 11 13 16 17 18 16 20
23 20 16 17 15 10 13 23 22 15 13 17 15 10 13 18 21 21 20 16 11 8 6 4 1 1 4 6 6 8 7 6 6 9 8 9 2 7 10 13 14 14 10 10 15 13 10 12 15
21 18 18 15 14 13 14 16 16 16 10 10 16 16 15 16 20 22 20 17 13 9 8 5 2 2 3 6 6 7 8 5 4 6 10 9 5 8 10 13 14 14 13 13 12 11 11 14 16
18 17 15 12 15 17 18 12 16 11 10 7 10 18 16 18 23 23 21 18 13 10 9 6 3 3 2 5 6 6 7 12 3 1 9 11 10 6 8 16 16 15 11 12 15 13 14 17 16
20 14 14 9 11 15 18 15 15 9 2 5 5 3 15 18 22 22 20 17 14 10 10 7 5 4 2 3 5 6 9 10 9 3 3 9 10 7 7 13 17 17 16 15 17 15 17 17 18
15 13 10 12 13 13 15 9 10 14 5 7 4 8 11 17 22 24 23 20 15 13 11 8 6 4 3 1 3 6 9 14 13 9 7 8 8 12 9 12 12 14 16 18 20 20 20 23 23
22 19 12 13 13 13 10 7 6 1 2 4 5 4 12 17 22 24 23 19 15 14 12 9 7 5 4 2 2 5 7 11 14 11 9 8 8 11 9 13 13 13 17 20 20 24 26 31 29
17 20 20 18 17 12 8 8 8 6 11 9 6 5 12 19 23 24 22 19 15 15 13 11 8 7 5 3 3 4 7 8 13 14 14 15 13 8 11 16 14 15 20 23 23 27 26 29 27
22 20 18 12 16 16 13 10 4 10 2 7 6 9 15 22 23 22 21 19 16 15 13 11 9 7 6 5 4 4 7 9 9 10 10 9 14 14 16 16 19 19 18 22 24 25 23 22 23
20 21 14 14 12 11 10 8 8 5 5 3 9 12 21 23 23 22 21 18 16 15 14 12 10 9 8 6 5 6 7 8 9 10 11 12 14 13 15 11 13 17 20 23 24 22 20 18 19
26 26 22 10 17 12 13 2 8 7 7 2 12 16 21 22 22 21 21 19 18 17 15 13 12 10 9 8 7 7 8 8 10 12 13 15 17 16 12 13 16 18 20 20 20 18 16 19 19

GFSSGP_850_spd_006.txt.gz
Wind_Speed
10 9 5 10 6 8 16 11 7 8 13 14 8 7 11 10 11 4 9 5 3 2 5 10 9 7 9 12 12 12 14 15 17 16 17 18 19 16 15 15 14 15 16 14 14 12 12 12 13
10 5 8 11 10 14 3 10 7 11 11 11 7 6 5 10 12 8 11 5 2 2 5 7 9 11 13 15 15 14 15 17 18 17 19 19 19 20 18 17 16 15 15 15 14 14 13 13 13
12 8 13 8 14 14 7 3 10 12 12 3 9 3 2 6 8 5 6 2 3 4 12 11 12 14 18 18 17 16 18 19 20 22 22 21 20 21 21 21 21 19 18 16 14 14 14 12 14
5 10 13 10 16 12 8 7 8 10 14 4 4 4 8 7 10 7 2 3 4 5 4 10 10 14 19 18 19 21 21 22 23 23 23 22 23 23 24 23 22 22 21 18 15 15 16 15 15
10 12 12 18 18 7 18 11 7 8 10 12 8 2 8 10 10 9 6 4 6 6 7 9 13 17 17 18 20 22 23 25 25 25 26 26 25 25 25 24 23 23 22 22 18 18 18 18 17
12 17 12 15 16 5 9 5 5 11 13 7 5 1 8 13 9 7 6 5 6 9 10 8 11 15 17 16 16 18 22 25 26 26 26 27 27 28 30 30 29 25 24 24 21 19 20 18 19
15 12 17 19 19 19 16 4 5 11 9 7 10 5 3 12 9 7 7 9 7 4 6 7 8 15 16 14 17 18 18 21 24 26 28 30 31 30 29 30 30 25 23 23 22 19 20 21 19
20 11 21 18 18 17 6 10 10 12 6 7 2 3 5 9 9 4 7 7 4 8 4 7 10 8 11 15 15 19 22 24 22 23 26 26 26 24 18 19 22 21 23 22 22 20 19 20 20
20 13 16 21 21 14 17 14 12 12 8 15 7 5 4 7 8 7 9 9 7 7 9 8 7 13 16 12 14 17 20 19 23 16 19 19 17 12 11 13 18 16 19 21 21 19 17 19 21
20 14 23 22 20 14 20 16 20 19 15 13 15 12 12 12 11 12 12 10 14 8 7 10 14 18 20 10 10 14 14 18 23 26 17 16 14 15 13 14 18 15 19 20 21 20 17 18 21
26 21 22 27 25 20 22 21 21 17 10 10 7 1 17 13 15 15 13 13 7 3 4 9 15 17 17 11 13 13 11 18 27 16 13 14 12 10 8 11 15 16 16 21 21 21 19 18 21
25 31 31 31 24 23 19 29 21 14 12 12 3 4 12 17 16 15 14 11 8 7 6 6 9 14 15 14 10 9 12 19 17 11 17 15 11 8 10 13 14 17 15 20 21 20 17 14 15
27 26 33 25 19 29 31 26 19 15 13 8 6 10 11 11 14 16 14 9 9 5 6 7 12 11 13 12 10 13 17 19 13 11 12 17 13 13 13 12 12 14 15 18 19 18 19 12 19
30 31 27 23 32 30 24 20 19 25 13 6 10 12 15 15 14 14 13 12 9 8 5 8 7 10 9 11 13 15 18 15 14 11 12 16 12 13 13 11 12 14 18 20 17 20 19 18 18
32 26 23 24 23 23 26 19 16 24 16 21 15 18 16 13 13 17 18 14 12 9 7 7 8 9 11 12 14 16 18 17 15 14 16 16 15 13 11 9 9 13 21 19 21 21 15 19 22
24 26 22 23 22 29 26 19 16 21 20 21 19 16 20 18 16 14 14 15 14 10 8 7 5 7 8 12 14 14 16 17 16 14 15 17 16 14 11 9 9 8 18 22 20 23 19 17 20
21 18 25 24 23 24 21 18 16 21 22 20 16 17 16 14 14 14 15 15 13 10 8 6 6 5 10 9 13 15 14 17 14 15 13 12 13 14 11 8 6 6 14 20 19 21 17 18 21
20 23 22 23 23 22 14 17 16 24 25 11 26 22 19 16 19 18 17 14 13 10 8 5 4 6 9 7 12 11 14 12 13 13 12 11 10 12 11 9 8 8 13 18 23 20 19 23 23
25 23 24 23 17 8 16 22 16 14 18 23 21 16 15 17 19 20 20 16 14 10 8 5 5 5 7 8 10 10 10 6 10 13 12 8 9 14 10 9 10 11 11 17 16 24 22 21 22
27 26 23 20 19 15 15 14 13 14 18 26 24 21 16 19 23 21 19 18 15 11 8 7 3 5 5 3 9 11 10 8 9 11 13 7 3 10 11 9 11 12 12 15 17 23 24 23 23
26 25 21 23 17 16 15 14 13 20 22 20 18 8 9 21 22 22 21 19 16 12 10 6 5 5 3 2 7 9 12 12 8 8 10 10 0 6 10 12 10 10 12 14 16 18 17 18 22
25 25 25 18 15 13 14 13 13 15 17 12 7 12 14 22 23 25 23 20 17 12 10 8 6 2 4 2 4 11 12 14 8 5 11 8 4 5 8 16 12 13 10 11 14 12 10 16 22
23 23 20 14 15 15 15 12 14 15 18 7 1 7 21 25 26 27 24 21 17 13 12 8 5 3 3 6 8 7 11 14 11 3 7 6 5 4 10 15 13 16 11 11 14 15 17 18 18
25 22 14 12 12 12 15 15 14 16 4 4 3 2 19 22 23 23 21 20 16 14 11 9 6 4 2 2 8 9 14 15 9 4 4 8 7 3 9 16 17 14 11 14 14 13 16 17 19
23 14 11 11 11 12 18 18 15 8 9 2 3 13 18 21 22 23 23 21 18 14 12 9 7 4 2 2 4 8 11 10 11 8 6 7 10 6 9 13 17 16 12 13 15 14 18 19 21
23 17 13 15 11 16 20 17 5 5 6 1 1 8 18 19 21 23 22 20 17 14 13 10 7 5 3 1 2 5 5 11 13 12 10 9 9 9 12 10 13 13 14 16 15 16 18 18 24
21 22 18 18 17 12 11 11 10 11 8 9 10 12 18 17 21 22 22 20 17 15 13 10 7 6 4 1 1 4 6 8 11 11 12 14 10 13 12 13 12 15 16 17 21 24 26 24 25
23 19 16 12 16 15 12 15 5 11 6 10 10 9 17 17 20 22 21 19 15 15 13 11 9 6 5 2 1 3 4 8 9 10 10 12 13 17 15 16 18 19 20 24 26 25 26 25 23
18 20 18 14 14 12 10 10 9 10 12 11 8 15 16 20 22 22 21 18 15 15 14 13 10 7 6 4 3 4 4 6 4 8 11 11 15 14 15 18 20 21 21 24 25 26 25 22 23
23 23 18 11 16 11 11 5 10 9 9 11 14 17 19 23 22 21 20 19 17 15 15 13 11 9 7 5 5 6 5 6 5 10 14 14 12 13 15 18 20 21 20 20 20 19 21 20 19

GFSSGP_850_spd_009.txt.gz
Wind_Speed
8 7 6 3 1 2 5 9 5 6 5 14 11 8 7 12 5 4 16 9 3 7 8 9 8 8 8 11 11 11 11 12 13 13 14 13 15 13 12 13 14 14 14 14 14 14 14 13 12
10 9 4 5 2 2 5 11 11 4 10 10 4 8 15 3 18 18 15 8 6 5 9 12 11 9 12 15 15 14 13 14 14 14 15 17 19 18 14 13 15 14 14 14 13 14 15 15 13
12 6 6 4 4 7 4 8 14 8 12 7 4 11 7 13 19 23 16 11 9 7 10 13 10 9 11 14 16 16 16 15 15 16 18 19 19 18 18 19 19 18 18 16 16 14 14 15 14
6 5 8 2 10 13 2 8 5 4 5 8 9 7 10 10 15 14 12 3 4 7 6 10 8 8 11 16 17 18 16 17 19 21 21 21 20 19 19 22 21 21 20 19 19 16 15 15 14
7 6 4 5 11 15 6 17 8 5 8 3 11 7 12 14 16 15 9 11 11 10 6 9 10 13 16 18 19 18 18 21 24 23 23 21 21 23 22 23 23 22 21 21 19 20 17 17 18
5 4 3 6 13 7 6 7 17 3 11 10 9 13 10 17 16 13 8 9 15 15 15 15 16 16 16 16 15 17 15 16 19 21 24 25 25 25 24 25 26 27 26 22 21 22 19 20 20
11 3 7 14 16 15 13 8 5 8 4 5 5 3 16 17 15 13 13 14 17 15 13 12 14 14 14 11 13 14 16 18 19 22 23 25 26 26 26 26 27 27 26 24 21 24 21 20 22
14 3 11 13 12 13 16 12 15 15 8 9 7 5 8 21 20 14 16 14 8 6 8 11 9 9 10 13 15 18 17 16 21 19 21 19 21 21 19 18 18 19 21 22 22 23 22 20 23
23 5 12 17 16 17 23 7 16 17 5 8 10 14 16 27 21 14 14 11 6 9 9 8 9 12 15 16 19 14 17 20 21 24 22 26 22 17 13 13 12 14 15 18 22 21 23 20 22
17 8 21 16 19 18 17 15 20 15 18 12 9 15 17 19 18 12 14 12 14 13 15 13 11 16 20 19 13 9 10 18 22 23 25 20 16 13 13 12 14 15 14 17 19 20 21 20 22
24 17 18 21 32 32 20 13 21 17 7 6 18 20 20 20 15 13 15 13 17 21 18 15 16 19 19 17 12 16 13 16 21 23 22 14 13 10 8 7 9 14 15 14 17 20 21 21 19
19 29 31 32 34 30 11 14 14 24 19 8 8 13 19 19 19 18 15 10 18 15 14 14 16 17 18 15 13 9 12 16 22 25 18 14 11 11 8 8 10 12 13 15 17 20 21 18 16
22 23 33 36 35 29 19 14 20 28 16 8 7 9 13 15 16 18 16 18 15 14 13 15 16 16 14 12 10 10 12 14 18 16 14 15 14 13 11 11 11 13 13 13 16 20 21 17 14
30 26 28 35 31 21 13 20 27 24 18 14 11 9 12 15 17 23 24 19 16 14 13 15 14 14 12 11 11 13 14 15 17 15 16 17 15 15 13 10 11 11 15 14 15 20 20 19 19
28 22 25 25 21 17 25 18 16 23 17 15 16 18 22 18 21 27 26 23 23 18 16 13 10 10 12 14 14 16 17 17 18 15 15 16 16 17 15 11 10 9 14 19 16 17 19 19 20
17 17 18 12 11 26 19 21 15 26 20 21 24 23 20 25 27 23 23 24 22 18 14 11 9 9 11 11 10 13 17 17 16 14 13 14 16 17 15 11 11 8 13 21 18 20 20 20 19
11 15 16 17 19 22 12 19 16 27 18 21 24 25 22 23 25 25 27 25 21 15 13 12 9 9 8 8 9 12 14 16 12 14 12 12 12 13 14 11 9 8 10 19 20 23 22 22 21
13 11 14 18 23 18 14 14 10 23 25 26 28 22 25 17 30 32 27 23 19 12 11 11 9 6 8 5 8 14 16 13 10 13 15 12 10 10 14 9 6 6 8 15 20 21 23 17 16
14 14 20 23 21 21 4 22 13 14 18 13 19 17 19 27 34 30 26 22 17 11 10 8 4 7 7 5 8 12 12 11 14 15 15 15 7 8 12 9 7 8 10 16 18 20 20 17 20
18 19 23 23 20 5 18 22 16 9 8 17 21 25 23 24 36 28 25 21 17 12 10 6 6 5 7 4 8 11 15 16 14 14 13 12 7 7 12 8 7 9 10 15 18 20 18 19 22
21 20 21 19 21 17 5 6 6 5 8 19 28 31 20 31 37 32 28 23 19 12 9 8 6 8 2 2 6 9 13 12 11 7 11 9 3 4 8 7 10 12 12 13 14 19 18 21 22
21 19 22 22 17 8 1 6 4 6 10 10 20 21 27 32 34 33 30 26 19 12 9 9 10 5 3 4 8 11 12 17 14 7 9 6 5 4 8 12 13 10 10 14 15 18 18 20 21
22 16 20 22 16 7 5 2 5 4 9 14 5 24 31 39 36 33 30 23 15 12 11 12 8 4 4 5 11 11 14 15 9 2 6 7 3 4 11 14 13 12 14 13 14 16 17 16 19
24 16 17 16 9 3 6 6 9 6 7 6 4 11 35 37 34 32 25 20 15 14 15 11 7 3 1 3 10 10 14 12 6 5 5 6 3 5 13 16 16 14 13 14 12 11 21 15 22
20 14 9 3 1 6 5 4 10 10 8 7 9 23 32 33 33 31 27 22 19 19 14 11 10 4 3 4 8 9 10 9 7 6 6 5 3 5 15 17 20 17 12 16 14 13 15 17 18
18 15 7 7 4 5 7 8 14 15 12 21 30 33 32 34 33 30 26 23 21 17 15 9 10 7 4 3 4 7 9 7 10 9 10 4 5 9 12 15 18 14 12 15 13 16 16 18 18
16 13 13 5 1 2 5 7 3 9 8 11 22 32 33 33 31 29 25 22 22 17 16 11 11 6 6 3 3 7 8 6 8 8 11 7 9 11 10 13 15 15 13 15 17 19 21 23 23
24 6 6 1 8 5 5 6 5 8 9 12 13 20 30 31 30 29 27 23 21 18 15 11 9 8 6 0 4 4 6 6 10 9 10 10 11 8 10 12 14 17 20 20 20 19 21 23 23
13 10 4 7 6 5 2 7 8 7 14 14 14 27 32 33 31 29 26 22 20 18 15 15 11 8 8 5 4 4 2 5 8 10 10 12 12 12 14 13 18 19 21 22 22 20 20 20 22
15 9 7 9 5 5 6 6 8 13 12 13 21 29 31 32 31 29 27 25 19 18 15 13 12 12 7 5 7 5 3 3 7 9 10 7 11 15 15 15 20 19 22 22 21 23 23 22 21

GFSSGP_850_spd_015.txt.gz
Wind_Speed
5 6 5 1 3 4 4 6 3 7 4 5 4 4 6 2 5 4 12 13 16 18 20 19 15 11 7 7 7 8 9 11 12 13 12 11 11 11 12 13 14 13 13 12 10 11 13 14 15
6 6 3 2 3 1 5 4 6 7 8 3 4 8 1 3 5 5 18 13 12 11 13 14 11 10 9 9 9 10 12 13 14 15 15 14 12 12 13 14 15 15 14 14 14 12 12 14 14
8 7 1 3 3 5 4 3 7 17 22 7 4 2 3 2 7 4 8 13 13 11 8 6 9 12 10 10 11 12 13 15 17 17 17 15 14 16 15 15 15 16 16 15 14 14 13 13 14
7 3 2 2 7 7 5 9 16 16 10 8 6 3 5 7 4 8 10 13 13 10 9 8 11 14 13 12 11 12 13 15 17 17 16 18 20 19 18 18 18 18 17 17 17 17 17 17 15
9 2 1 3 6 5 6 21 19 6 7 2 14 6 5 16 11 11 15 15 12 11 12 12 13 13 11 10 10 12 12 12 13 13 15 17 19 20 21 21 20 20 20 19 18 18 19 19 16
4 2 1 4 5 5 7 25 15 9 14 6 6 9 6 12 19 16 18 16 13 10 14 15 15 13 10 10 12 14 15 16 14 13 13 14 18 21 23 24 25 25 22 22 22 20 21 21 20
6 3 4 4 9 7 7 6 2 5 10 8 5 7 5 16 21 19 20 17 12 16 16 16 16 13 12 14 15 16 17 17 16 14 13 15 15 15 17 19 24 26 24 24 24 24 25 23 21
6 4 3 5 4 10 6 3 8 10 16 7 12 5 7 19 23 24 21 19 17 17 17 16 15 15 15 17 16 17 15 17 15 14 15 16 15 16 18 15 17 19 22 24 23 24 25 26 24
10 2 6 7 7 8 13 4 22 14 13 11 12 18 21 13 29 28 24 23 22 20 18 17 17 18 18 16 18 17 17 16 16 15 15 15 15 19 17 15 15 15 14 15 18 19 22 24 24
7 5 10 11 9 8 15 12 25 13 22 20 19 19 21 18 34 34 31 29 26 21 20 22 22 20 17 16 16 17 15 15 16 16 16 16 16 19 18 16 13 15 16 18 17 19 18 22 23
10 13 23 16 24 17 16 25 28 17 15 24 26 16 17 24 36 36 33 29 23 21 24 27 25 22 19 16 15 14 10 10 12 15 15 16 18 19 16 14 12 11 12 16 17 14 17 21 22
6 19 28 31 32 16 13 24 23 28 27 39 40 27 18 30 37 38 35 31 26 27 30 29 26 23 18 14 12 8 6 6 8 10 13 17 19 15 15 13 11 12 12 12 14 14 15 18 20
8 19 28 27 27 28 30 26 25 29 41 43 42 34 24 31 34 34 35 32 29 31 34 31 28 24 16 12 8 7 7 7 8 9 13 16 17 16 15 14 12 13 13 13 13 14 15 18 19
9 15 19 21 28 29 26 27 24 35 32 38 34 26 24 32 36 37 40 37 35 34 36 34 28 21 13 9 7 7 6 6 7 10 13 15 15 15 16 16 13 11 12 12 12 13 15 17 17
13 12 14 19 18 23 26 19 22 35 35 34 37 31 29 33 39 42 40 40 38 35 33 32 26 17 11 8 8 6 6 9 10 11 13 13 14 15 15 15 15 11 12 12 12 13 14 17 17
5 2 7 6 13 21 10 25 20 37 33 35 37 35 30 35 42 44 43 41 38 35 32 28 20 13 9 7 6 6 8 10 12 12 12 12 13 13 14 15 14 12 12 11 11 14 14 17 18
2 13 13 17 11 7 8 16 11 26 22 27 34 39 36 37 45 47 45 42 40 36 30 25 16 11 8 5 5 7 8 10 10 10 11 13 14 14 14 13 13 13 12 11 11 14 14 14 17
11 7 13 22 3 11 17 15 20 30 21 24 32 35 34 36 46 43 44 40 38 33 29 21 13 10 7 6 5 6 8 10 11 12 12 13 15 14 12 12 13 13 12 11 13 16 14 14 14
7 15 16 16 3 8 8 9 17 21 15 20 29 37 35 32 35 27 38 37 39 33 28 18 13 10 7 6 5 6 9 12 13 13 13 11 13 12 10 10 12 12 9 8 11 18 16 15 13
11 10 20 15 9 7 11 13 17 14 13 22 26 36 24 24 20 21 30 35 38 33 23 15 13 10 7 4 3 7 12 14 14 15 9 8 13 10 9 10 10 10 8 9 12 18 17 16 16
18 18 16 19 1 6 10 14 14 17 11 23 25 22 19 25 25 26 32 39 37 29 20 14 13 8 5 3 3 8 11 14 13 9 5 8 9 7 7 11 10 9 8 10 14 16 17 18 16
18 17 20 19 6 8 4 5 5 8 12 7 20 14 18 22 20 26 39 39 34 24 16 14 10 6 4 3 3 8 10 14 9 5 4 6 6 3 7 9 8 9 9 11 14 14 16 16 17
19 13 11 11 9 5 11 3 7 3 8 11 11 14 12 12 19 30 41 36 28 19 15 13 9 4 5 4 2 8 9 10 7 5 5 5 4 4 8 8 9 9 9 11 12 15 15 14 18
6 3 2 6 1 11 18 6 5 6 8 7 4 4 9 17 23 31 34 30 23 17 15 12 7 5 6 3 3 8 8 7 7 7 8 5 3 6 10 11 9 9 9 10 10 13 15 14 14
7 7 2 3 4 6 7 6 15 10 10 9 9 12 17 20 25 31 36 31 24 20 16 12 7 6 5 2 4 7 7 7 7 9 10 4 3 7 13 11 10 8 9 9 10 12 13 15 16
17 14 6 7 4 4 6 6 9 5 10 21 24 14 22 25 27 33 35 29 23 19 17 12 9 7 4 2 4 4 5 7 7 10 9 2 3 9 13 11 11 8 9 9 9 7 13 11 17
16 16 14 2 2 2 4 7 10 3 3 3 9 19 24 27 30 33 33 27 22 20 17 12 10 8 5 2 2 3 5 8 9 9 5 5 6 10 12 12 12 8 10 9 7 7 13 9 17
10 10 8 4 5 4 4 4 6 5 3 3 6 11 20 25 29 33 32 27 20 18 15 12 9 9 5 3 1 2 5 8 11 6 6 5 6 8 10 11 13 8 10 9 7 9 10 9 12
7 8 4 8 5 5 2 6 7 9 9 11 9 19 28 30 32 35 32 25 19 19 17 14 13 12 8 3 2 0 5 6 9 4 5 5 7 8 10 11 13 10 8 8 7 9 9 9 10
18 18 13 8 8 6 4 8 4 8 11 11 13 24 28 30 33 34 30 26 23 23 19 16 15 13 8 3 3 1 3 4 6 4 5 8 8 8 9 10 11 10 9 8 7 9 9 7 9

GFSSGP_850_spd_021.txt.gz
Wind_Speed
12 14 12 5 3 2 3 3 2 4 2 3 6 5 6 3 4 7 3 11 9 13 12 15 15 15 13 10 9 10 7 7 8 9 9 9 9 10 10 9 9 9 10 11 11 11 10 10 12
13 13 6 2 2 4 3 3 6 1 7 11 7 8 6 7 14 8 7 14 11 11 10 14 15 14 12 10 10 10 8 8 9 9 10 11 10 10 12 10 11 13 12 12 12 11 11 10 12
12 8 3 2 3 6 3 7 4 5 12 3 3 6 4 5 8 6 10 15 12 12 10 11 13 15 15 12 8 9 8 8 9 9 10 11 11 10 11 12 13 14 14 13 12 11 12 12 12
8 4 3 4 10 6 4 4 5 11 1 3 3 7 6 12 8 9 10 13 12 11 12 13 14 16 16 16 13 11 9 8 7 9 11 11 11 10 13 16 16 15 15 14 15 14 14 16 15
8 3 4 5 7 6 9 15 8 7 6 6 3 3 6 15 13 12 11 14 13 12 12 16 16 17 18 20 18 16 13 10 9 9 11 11 10 13 16 16 18 19 18 17 18 18 19 17 16
4 2 4 8 10 8 8 13 5 6 2 4 3 4 7 13 14 15 15 15 15 13 10 16 17 17 18 20 19 17 14 12 11 11 12 12 12 15 15 17 19 21 21 21 21 19 20 20 19
5 3 5 7 9 8 7 2 6 6 2 1 4 4 6 13 16 15 16 17 18 17 14 15 18 19 20 21 19 18 16 14 14 14 14 14 14 16 16 18 17 19 21 22 25 26 23 23 22
3 3 4 5 7 8 5 5 4 2 0 10 3 3 9 20 20 21 19 21 22 22 20 19 20 21 23 25 23 20 18 15 15 16 16 16 16 17 17 17 18 19 19 20 23 26 26 25 24
6 6 11 8 9 8 1 3 1 1 9 8 10 16 13 16 20 26 21 26 28 29 27 24 24 24 25 27 25 22 19 16 17 18 18 17 18 18 18 18 18 17 17 18 19 19 19 20 24
10 11 15 15 13 11 4 7 7 7 13 26 21 18 11 21 25 26 24 29 34 36 32 30 28 28 27 27 26 23 19 18 18 19 20 19 19 19 20 20 18 16 15 16 17 17 17 18 15
12 19 24 23 20 11 17 15 14 15 19 27 21 27 27 25 31 28 28 31 37 39 37 34 30 28 28 29 26 24 19 19 19 20 20 19 19 20 20 20 17 15 14 14 15 17 19 19 15
14 23 30 33 24 18 22 21 20 24 36 34 30 26 29 32 36 33 34 33 35 39 41 38 33 29 30 30 26 23 20 19 20 19 18 18 18 18 18 18 16 16 14 13 13 13 15 19 18
19 22 24 26 30 27 25 27 25 30 43 33 29 28 30 31 34 36 36 33 34 40 43 42 34 31 31 30 26 22 19 19 17 17 16 16 16 15 15 16 17 16 15 14 14 14 13 15 17
14 28 30 26 23 27 23 32 20 30 40 28 28 32 33 31 36 35 34 31 31 36 44 42 37 32 30 28 24 20 19 18 16 14 14 15 16 15 16 16 17 18 17 14 13 14 14 13 15
18 16 14 15 22 14 15 23 23 38 36 24 28 30 30 34 33 32 32 33 31 36 41 41 36 32 29 26 22 19 19 16 13 13 14 17 17 16 15 15 16 17 17 15 13 13 13 14 15
10 9 16 14 21 15 13 25 16 24 18 20 24 27 29 37 37 37 32 32 32 36 39 36 36 33 28 25 20 19 17 14 12 13 14 17 18 16 15 15 16 15 16 16 14 13 13 13 15
9 16 18 14 11 4 16 22 12 15 15 20 28 30 30 32 33 30 33 33 28 31 33 32 35 31 27 23 20 18 15 13 12 13 14 15 16 16 16 15 15 15 16 16 14 13 12 14 13
16 12 11 12 10 18 21 25 18 22 21 23 29 31 30 33 38 35 32 26 20 22 23 27 32 32 27 22 19 17 14 12 13 14 15 16 16 16 16 14 13 15 15 15 13 12 11 13 12
19 19 23 19 14 13 19 21 14 19 26 26 28 31 33 39 36 29 20 18 16 17 20 27 35 31 27 22 18 15 12 11 13 15 16 16 16 15 14 13 12 14 14 13 12 12 12 13 12
24 23 20 16 12 10 15 23 17 14 21 28 30 32 30 30 23 17 13 12 12 12 22 31 32 29 22 17 14 11 9 11 11 13 12 10 9 11 13 12 10 12 13 12 12 13 14 13 13
27 28 22 21 9 11 12 22 16 21 17 20 29 27 27 23 18 11 10 8 11 18 25 31 28 22 18 14 11 9 8 8 9 8 6 6 7 9 10 9 9 11 10 10 10 11 16 14 14
26 24 22 21 11 15 4 18 14 19 22 21 28 22 22 17 13 9 7 8 13 18 27 28 24 19 15 12 10 7 6 6 6 5 5 7 6 7 5 6 9 8 7 7 8 11 14 14 16
19 17 18 20 17 16 18 13 16 12 19 23 20 19 10 5 6 7 8 9 15 27 30 25 20 16 14 12 9 4 3 4 5 4 6 7 6 4 3 5 6 5 6 7 9 14 15 13 14
12 12 16 12 12 14 19 15 14 16 20 16 12 12 4 6 3 8 12 18 27 31 27 22 18 15 13 10 8 2 3 3 5 6 7 8 5 4 5 5 6 6 6 8 10 12 12 11 10
19 14 6 7 7 10 15 11 18 14 16 15 15 11 1 2 9 15 20 28 35 31 25 21 17 14 12 10 6 1 2 3 6 7 8 4 4 5 7 7 6 6 6 8 9 12 11 9 8
26 21 9 9 7 9 7 10 8 19 22 28 22 11 6 9 14 18 23 27 33 28 24 20 16 13 12 10 5 2 1 4 7 5 4 1 5 8 10 8 7 7 7 7 8 10 11 10 8
23 18 15 3 1 4 6 6 11 15 9 11 16 10 10 13 18 21 25 31 30 26 23 19 15 13 12 9 5 3 2 4 5 3 5 3 8 12 11 10 8 8 8 9 7 9 8 9 8
19 20 11 9 11 8 6 4 9 9 14 10 9 11 13 16 19 23 28 31 28 23 22 17 14 13 11 8 6 3 2 4 2 5 4 5 9 12 12 11 8 6 7 6 5 7 10 7 9
12 22 8 9 5 6 3 5 7 12 14 14 10 15 20 22 22 25 28 30 26 24 22 17 16 13 10 7 5 3 2 3 2 2 2 5 8 11 12 11 7 7 6 5 5 8 9 6 9
20 20 21 10 11 5 2 4 3 8 2 1 8 13 17 20 22 26 27 29 27 25 21 17 16 13 9 7 5 3 0 2 2 3 5 7 8 10 11 11 8 5 6 6 8 9 8 9 10

GFSSGP_850_spd_024.txt.gz
Wind_Speed
14 16 9 4 6 4 11 6 3 7 7 2 3 6 5 7 8 6 2 8 11 14 12 11 15 15 14 13 10 11 9 6 5 5 6 7 8 9 10 10 10 11 11 13 12 12 12 10 11
16 15 6 4 7 9 9 6 10 3 2 7 10 12 9 9 7 7 4 10 11 13 12 12 14 15 16 13 12 10 10 6 5 6 7 8 9 10 11 10 10 10 11 12 14 14 12 11 10
15 9 8 5 8 10 3 10 6 2 2 3 5 6 2 2 3 4 6 11 13 14 12 13 15 16 16 14 12 11 10 7 5 6 7 9 10 11 11 11 12 13 12 12 12 13 12 11 12
10 6 7 9 12 9 9 8 3 5 5 3 4 6 4 4 2 3 6 12 15 15 14 13 16 17 17 15 13 12 11 8 7 7 8 10 10 11 11 13 14 16 16 14 14 13 13 13 14
9 8 10 12 14 10 8 10 7 8 3 4 3 4 4 3 5 8 6 14 15 16 17 15 18 19 18 18 16 15 13 12 11 10 10 11 11 10 12 15 17 17 18 18 18 17 19 18 16
12 8 10 13 15 8 10 13 12 12 7 3 5 4 2 4 8 6 6 12 15 16 19 18 19 20 20 20 20 20 19 17 14 13 12 12 12 11 15 18 18 19 22 22 22 21 20 20 19
15 9 14 15 12 11 13 9 13 16 12 7 4 7 5 2 10 10 8 10 16 18 21 19 20 22 22 22 25 24 21 19 17 16 14 14 14 14 17 19 20 20 19 20 21 22 23 22 22
14 10 18 13 14 12 2 10 5 8 7 1 3 6 7 11 11 10 9 10 16 21 21 23 23 23 23 26 28 26 23 21 19 18 17 16 16 17 18 19 19 19 19 20 20 22 23 24 24
14 11 14 19 14 11 5 8 2 3 11 12 10 13 15 15 12 13 13 13 17 22 23 23 21 22 24 24 24 27 25 22 22 21 19 18 15 14 15 17 20 22 22 21 20 19 19 21 25
18 15 23 21 13 15 9 10 9 10 17 21 20 20 13 13 17 17 17 18 18 22 24 25 25 24 22 21 21 23 24 22 20 16 15 15 14 15 16 18 23 21 22 20 20 19 17 14 13
22 24 23 26 26 23 21 23 23 18 18 26 25 24 22 23 22 22 22 20 19 20 24 26 31 31 26 21 19 18 18 16 16 17 16 15 14 14 14 14 14 14 16 13 13 13 13 13 16
29 29 28 32 32 24 20 29 27 27 25 31 29 27 30 28 25 25 25 25 23 21 23 27 29 34 32 22 21 19 18 16 15 14 17 17 15 14 14 13 14 14 13 15 12 12 12 13 16
31 25 31 29 31 30 29 31 32 34 29 32 27 27 25 25 28 31 29 27 25 23 21 27 30 33 34 32 21 21 20 18 16 15 15 17 15 14 14 14 14 15 15 14 13 13 13 12 12
32 34 35 35 34 32 28 29 33 34 31 34 27 28 27 26 30 29 28 28 25 22 19 24 31 32 34 33 30 27 26 19 20 13 13 18 16 14 15 15 14 15 16 15 13 13 12 13 13
32 27 27 25 31 28 32 27 28 33 28 32 28 24 26 28 30 28 26 26 24 22 21 26 30 31 34 32 31 28 24 23 14 12 17 17 18 16 18 16 16 16 18 19 17 14 12 12 14
20 24 25 26 23 24 18 30 24 23 24 24 21 24 28 29 30 28 24 25 25 23 23 26 24 28 34 34 30 28 22 20 14 13 13 16 18 18 19 19 19 18 17 20 16 13 13 13 13
25 26 32 26 25 24 25 35 25 30 23 19 22 26 29 33 32 28 23 21 22 22 23 25 21 26 32 31 31 27 24 18 13 13 12 14 15 17 19 20 17 18 18 18 16 13 14 13 16
28 25 26 28 21 17 27 33 23 27 25 25 25 27 30 31 31 27 22 21 24 22 20 17 19 25 29 27 25 20 15 14 12 11 12 13 14 17 19 19 18 17 17 16 14 13 13 13 12
26 26 31 26 25 24 26 30 27 27 19 27 31 30 31 32 33 22 20 19 16 15 13 15 21 26 26 22 20 15 13 12 10 11 12 13 14 17 18 19 17 17 16 16 13 14 14 14 14
29 28 30 24 19 22 23 29 27 22 25 28 33 30 32 29 26 18 16 10 10 9 12 17 21 24 24 20 15 12 11 10 9 9 12 11 12 14 16 15 16 15 16 17 16 15 13 14 14
31 31 24 26 19 18 22 28 28 27 33 35 31 27 28 27 25 18 11 7 8 11 14 18 21 24 23 17 15 12 9 8 7 8 7 7 8 10 12 13 13 12 12 15 15 15 13 13 13
32 24 24 24 20 23 21 24 27 25 27 22 29 30 32 25 20 13 10 10 12 13 17 19 23 26 22 17 11 10 8 7 8 7 8 7 8 10 9 8 9 10 13 13 12 9 10 12 11
30 18 22 23 21 23 27 19 21 19 23 25 25 27 22 18 13 13 12 12 15 18 21 23 25 22 18 16 10 7 6 6 5 5 7 8 8 7 5 7 9 11 10 9 8 9 11 11 10
22 18 21 18 16 20 21 21 21 23 26 24 21 21 18 10 9 13 14 17 20 22 22 22 22 18 15 12 10 7 5 5 4 6 8 8 10 6 7 7 8 7 6 7 7 8 9 7 8
23 22 10 13 13 15 17 15 23 21 19 22 16 12 12 10 13 17 20 22 24 24 23 20 18 15 14 11 9 6 4 4 3 5 6 7 5 6 7 7 7 6 5 6 7 9 8 7 6
30 27 14 18 14 13 19 11 14 11 18 28 25 12 11 12 15 19 22 25 25 24 22 19 17 15 13 11 9 6 4 2 2 3 3 2 5 8 8 7 6 5 5 7 8 8 8 7 6
28 27 25 8 4 8 9 14 13 18 15 13 13 20 14 12 17 21 24 24 25 23 21 18 16 14 13 11 8 6 4 1 2 1 2 2 6 8 7 7 7 6 6 6 7 7 8 7 7
28 24 22 13 15 12 8 12 7 3 6 10 12 14 14 16 20 23 24 25 23 21 19 17 14 13 13 11 8 5 3 1 2 2 4 5 8 9 7 6 5 6 6 5 5 6 8 7 7
18 23 21 17 12 13 6 6 7 13 7 11 12 16 19 21 23 25 25 24 22 20 19 16 15 14 13 10 8 6 4 1 2 2 4 6 8 9 7 6 4 5 5 4 4 7 6 4 8
24 21 26 14 20 10 7 2 4 4 3 8 6 13 20 22 24 26 26 25 23 21 19 17 16 14 12 10 8 5 4 2 2 3 6 8 8 9 9 7 4 4 4 4 5 5 5 7 9

GFSSGP_850_spd_027.txt.gz
Wind_Speed
10 12 7 7 8 8 13 10 9 5 6 1 4 7 10 12 9 5 6 5 9 17 8 10 12 15 13 11 10 9 8 6 3 2 3 5 6 8 8 9 10 11 11 11 11 11 11 10 11
10 9 8 12 9 12 13 14 9 10 5 3 10 10 9 7 7 4 4 9 11 17 10 11 13 16 14 13 11 12 11 8 4 2 4 5 7 8 9 9 10 11 10 11 13 12 12 12 10
14 10 12 6 13 14 6 4 18 6 3 8 6 1 6 3 4 5 4 6 12 17 11 11 13 16 16 14 13 13 12 9 6 4 4 6 7 9 10 9 9 10 12 12 11 11 12 13 12
11 10 14 11 18 13 10 9 4 1 9 7 10 8 5 4 2 2 1 8 10 14 16 12 14 16 17 17 15 14 12 10 8 6 6 7 8 9 10 10 11 12 13 14 14 13 13 13 14
15 16 13 15 18 17 6 14 3 5 10 7 2 13 0 10 5 2 2 7 9 12 15 16 16 18 19 19 17 16 14 12 11 10 9 10 11 11 11 11 12 15 16 17 16 18 18 17 18
15 19 13 15 19 19 6 12 13 13 12 7 5 9 4 4 4 2 1 6 9 12 16 17 17 20 21 22 20 18 16 15 14 13 13 13 13 13 13 12 16 18 18 20 21 22 22 19 19
20 13 16 19 18 16 7 12 15 13 14 16 6 5 8 4 4 1 4 6 11 13 16 19 20 23 25 25 23 22 21 20 19 18 16 16 16 15 15 15 19 19 19 19 18 20 21 21 21
25 13 22 18 17 19 13 6 12 12 12 8 2 8 14 6 6 7 9 10 11 13 16 19 19 20 27 28 28 26 25 24 22 21 20 20 19 19 16 18 19 19 19 18 19 20 19 23 24
22 15 17 21 20 18 14 11 17 4 12 7 11 12 17 18 15 13 15 16 15 15 18 20 21 21 23 27 28 31 28 26 24 24 24 22 19 14 17 18 19 22 22 23 23 21 19 19 22
24 17 24 20 19 19 19 11 16 9 13 17 20 23 20 13 16 18 18 19 21 20 19 23 23 24 22 21 22 24 28 29 26 25 19 16 11 14 15 16 21 23 21 21 22 19 17 17 14
29 24 24 26 25 26 30 26 24 21 21 21 21 24 22 23 23 23 24 24 24 23 18 22 27 29 26 23 22 18 19 20 20 19 18 15 15 14 14 13 16 17 15 13 12 13 13 9 12
29 36 33 34 35 34 32 34 29 28 28 28 26 28 24 25 25 24 24 25 28 28 22 20 27 32 34 27 25 22 19 20 17 17 19 18 15 14 13 12 13 15 13 13 13 12 14 13 13
34 31 37 40 40 38 37 34 34 34 35 35 30 29 25 27 24 24 25 28 29 28 27 21 26 35 35 37 27 27 24 21 18 18 16 16 14 14 13 14 17 16 13 14 14 13 15 15 16
38 39 41 42 40 38 33 35 35 36 37 36 31 30 30 29 26 26 27 29 28 26 25 21 23 35 38 31 33 32 27 20 18 17 15 17 15 14 14 16 20 15 15 15 17 16 16 16 15
42 35 33 34 36 34 36 35 34 39 37 37 35 33 31 28 27 26 30 29 29 26 23 21 23 32 38 29 34 29 25 26 23 18 17 16 16 14 17 15 18 18 18 19 19 17 17 15 14
33 31 29 32 32 34 28 35 28 35 37 37 30 30 27 25 28 29 32 31 26 24 23 20 21 28 30 26 28 27 23 20 17 14 13 15 16 16 15 16 17 19 21 18 15 15 16 15 15
27 28 36 31 29 28 29 40 29 36 36 36 37 36 25 28 30 31 30 28 23 21 20 20 21 25 26 25 23 24 20 17 14 13 12 13 15 14 19 19 20 21 20 17 16 15 16 14 16
32 34 30 33 28 29 34 36 31 34 32 35 42 26 31 33 35 31 31 26 19 18 18 18 22 23 27 22 23 20 18 16 13 12 11 13 13 16 17 19 21 19 17 19 18 16 15 13 12
31 26 32 32 28 31 31 32 28 23 32 34 36 38 26 34 38 36 29 17 23 15 16 19 19 24 25 23 22 20 17 13 12 11 12 13 12 15 18 20 19 17 19 18 16 16 15 14 13
34 32 34 29 28 23 28 30 28 26 26 34 38 39 33 31 40 32 23 13 11 10 13 15 19 23 23 21 19 17 14 11 10 10 11 11 13 15 16 17 17 18 17 16 15 15 14 18 15
33 33 30 31 25 23 25 29 30 28 29 34 38 42 41 39 35 29 20 8 7 10 13 16 20 22 23 19 18 15 12 10 9 10 10 13 13 12 13 14 15 16 14 12 13 15 17 14 13
32 30 29 27 22 20 21 23 28 21 24 26 32 37 37 30 27 26 11 9 10 12 14 18 20 23 21 21 15 14 10 8 8 7 7 7 10 10 13 15 12 10 8 14 15 15 14 14 13
38 25 26 26 21 23 28 19 20 22 24 22 21 27 30 29 29 25 13 12 12 14 17 20 22 21 19 17 13 11 9 6 5 6 8 12 13 14 12 8 9 7 12 13 11 9 9 11 11
31 28 26 21 18 20 26 21 24 24 25 24 22 29 25 24 22 9 13 15 16 18 20 21 22 20 17 15 12 9 7 5 5 6 7 12 13 12 8 7 6 10 10 8 8 8 9 8 10
28 26 17 19 17 23 18 20 23 23 22 19 18 23 23 22 14 16 18 19 22 23 23 22 21 18 16 13 10 7 5 4 5 5 8 8 8 7 7 9 7 6 6 5 6 7 9 7 7
34 28 17 33 15 19 24 24 17 14 9 10 18 14 12 12 16 18 21 23 25 24 23 21 20 17 15 12 9 7 5 2 2 5 3 5 4 5 6 5 4 5 5 5 7 6 5 3 5
39 27 34 24 24 17 15 18 20 18 16 12 11 18 17 15 18 21 23 25 25 24 22 21 18 16 14 12 9 7 5 3 3 2 1 3 4 5 6 5 5 6 7 7 7 7 5 4 2
31 29 23 20 27 22 14 11 9 7 6 16 14 20 20 18 20 23 25 25 24 22 21 19 16 15 13 11 9 7 6 3 3 2 2 5 6 7 5 4 4 6 5 5 4 4 4 4 4
24 25 29 22 18 16 13 12 6 6 8 10 15 23 25 23 24 26 26 25 23 22 20 18 16 15 13 11 9 7 5 3 5 2 6 5 8 6 6 3 3 4 4 3 3 5 5 6 7
31 30 31 18 27 18 11 6 4 7 11 12 18 24 23 24 26 27 27 25 24 22 19 17 16 14 13 11 8 7 5 3 4 2 4 6 8 8 7 5 3 3 2 1 3 4 4 6 8

GFSSGP_850_spd_030.txt.gz
Wind_Speed
5 8 7 7 6 7 16 20 4 4 4 3 5 4 13 9 8 5 13 13 14 8 8 10 11 12 12 11 10 9 8 6 4 2 2 2 4 4 5 6 7 8 9 8 8 9 8 7 9
10 7 6 9 8 12 14 14 9 5 26 8 3 6 7 3 13 16 14 11 14 7 9 10 12 13 14 14 12 11 11 7 5 3 1 2 4 5 6 7 6 7 9 8 10 10 10 10 8
13 12 12 5 11 15 14 3 4 7 10 12 5 6 3 10 11 12 11 10 15 11 11 11 12 14 16 15 14 13 12 10 7 4 2 2 4 5 6 7 7 7 8 10 11 10 9 10 10
9 5 12 7 18 21 12 8 3 4 28 2 6 6 6 10 7 7 5 8 15 12 12 14 14 14 16 17 16 15 13 12 9 6 4 4 5 7 8 7 8 8 9 11 12 13 11 12 11
9 13 11 15 19 20 16 19 14 7 11 7 4 2 11 10 12 8 7 8 11 15 14 12 15 16 17 18 18 16 14 13 11 10 8 7 8 9 10 9 9 10 11 13 14 14 15 16 16
10 12 12 15 20 22 16 15 16 13 3 13 5 11 6 12 14 7 5 7 8 12 17 18 14 18 20 21 21 19 17 15 12 12 11 11 11 11 12 13 11 12 17 15 16 18 19 20 20
18 11 17 19 20 20 16 7 10 15 13 7 12 3 5 16 7 3 3 8 11 13 18 20 20 18 23 23 24 23 21 18 16 16 16 16 15 15 16 15 13 16 18 17 16 16 16 19 20
23 12 22 20 18 21 19 20 9 16 12 5 6 3 8 4 8 5 9 10 15 17 21 24 22 24 25 30 29 27 26 23 21 20 20 20 20 19 19 14 15 15 15 17 18 18 18 18 19
21 14 16 23 22 19 20 17 20 17 5 12 3 7 7 14 20 10 12 13 14 15 22 28 24 25 22 31 34 32 31 28 27 25 24 23 22 20 16 14 16 18 19 21 21 21 18 16 17
21 16 26 22 21 18 22 21 13 17 12 15 18 16 19 19 8 11 17 18 18 20 14 27 25 27 26 25 32 34 36 32 32 30 27 25 21 15 7 16 17 18 18 16 17 9 10 11 14
28 24 25 26 31 31 25 26 24 26 18 17 25 25 21 20 23 22 22 24 22 24 20 18 27 29 30 30 24 30 30 32 36 33 29 24 16 9 13 15 15 16 15 13 13 10 12 11 7
27 36 34 35 34 35 26 34 31 33 31 27 35 28 25 20 19 22 26 23 22 23 23 24 25 30 33 33 27 32 31 28 30 32 27 23 17 23 19 18 16 15 14 13 13 12 14 12 9
31 28 37 39 36 37 38 32 30 37 37 38 35 33 32 30 21 24 29 26 24 22 22 21 25 31 33 38 31 31 30 23 21 19 20 23 22 18 14 14 13 16 18 16 13 14 17 16 17
36 36 38 40 39 39 33 30 34 37 34 36 34 35 37 35 27 26 31 25 23 21 25 25 26 26 32 32 37 32 31 25 23 25 24 24 22 16 18 18 18 21 19 17 18 23 18 17 13
40 33 32 32 36 33 35 32 28 36 38 38 38 38 36 32 31 31 28 27 19 23 27 25 24 20 27 33 36 34 32 29 28 28 22 21 20 16 18 16 16 18 16 20 21 21 18 18 17
32 32 30 29 29 37 30 31 26 37 33 30 34 34 34 37 31 24 23 24 26 28 27 24 20 21 25 33 34 32 25 29 23 24 22 22 22 19 16 16 18 17 21 21 19 20 16 15 15
29 23 33 33 29 30 29 31 28 38 37 35 31 33 33 33 34 20 19 23 29 31 20 19 20 22 27 32 29 23 25 29 31 18 18 18 19 17 14 16 17 21 22 22 20 18 15 15 14
23 30 34 29 26 27 30 29 28 34 35 34 30 31 27 32 38 27 25 25 33 19 19 20 21 22 26 28 23 22 27 25 19 22 18 16 16 14 16 18 20 20 20 18 17 17 15 14 13
26 32 33 29 25 27 25 26 29 23 27 27 33 27 27 31 32 24 22 23 31 23 22 24 24 25 29 25 20 24 22 21 21 18 16 16 16 13 18 18 22 21 19 16 17 14 12 14 14
33 33 31 28 26 23 23 25 24 23 20 29 28 26 22 25 31 27 23 22 23 20 18 20 22 27 27 23 21 20 22 14 17 16 16 17 17 15 17 20 21 18 16 17 16 14 13 14 15
32 33 26 30 24 27 24 25 25 24 26 31 27 26 25 25 30 36 32 22 17 16 14 14 18 24 26 24 22 18 17 15 15 15 14 16 17 16 17 18 17 15 16 15 12 10 13 14 15
28 28 28 27 22 21 20 20 25 19 22 21 22 28 30 30 32 35 35 18 17 13 10 15 22 21 23 19 20 21 20 16 13 11 11 14 12 11 15 15 15 13 10 7 11 12 13 14 16
34 22 26 27 25 21 24 15 27 16 19 15 16 23 25 23 23 25 16 19 14 14 15 19 21 22 21 23 20 20 16 12 7 8 8 8 13 16 16 15 11 7 6 9 10 12 12 13 14
26 29 27 25 19 18 25 21 25 18 18 17 18 27 27 22 24 23 21 20 20 17 18 20 22 21 23 22 16 14 13 9 8 9 10 13 14 12 10 7 4 5 7 8 9 7 6 7 9
31 22 16 18 17 22 19 22 21 21 19 19 21 24 18 14 17 26 25 23 22 22 22 23 26 22 23 18 16 12 12 13 9 7 9 9 8 6 5 7 6 5 4 4 4 4 6 4 6
29 26 15 24 17 19 23 22 20 22 19 18 12 5 11 3 24 26 23 23 23 24 24 23 24 20 19 17 13 10 8 5 5 5 4 5 3 3 6 4 4 1 1 3 2 3 3 3 4
28 28 29 23 21 16 17 20 31 24 18 13 7 11 11 21 19 22 22 23 25 25 24 24 21 19 18 15 13 10 8 4 4 4 4 2 3 5 6 4 3 5 5 4 3 4 4 3 3
31 20 26 18 25 22 20 23 14 17 19 16 12 11 20 25 21 24 26 26 26 24 24 21 19 19 18 15 12 9 7 5 4 3 2 4 8 9 2 4 4 5 5 7 7 5 6 5 4
23 25 22 21 17 16 14 13 7 14 9 4 13 19 24 24 24 26 26 26 25 24 22 22 20 18 16 13 11 9 5 5 4 3 8 6 10 3 4 4 5 4 3 3 4 6 5 5 3
29 25 23 15 25 17 14 16 8 4 5 6 13 24 29 26 26 27 28 27 26 24 23 21 19 18 16 13 11 7 5 7 7 4 8 5 11 6 7 4 5 3 1 1 4 3 3 3 5

GFSSGP_850_spd_033.txt.gz
Wind_Speed
6 4 6 2 2 2 4 7 10 12 5 15 14 8 3 10 5 5 18 21 14 13 14 14 14 13 13 13 12 12 10 9 7 5 4 4 4 4 5 4 2 2 4 4 5 5 6 6 6
5 9 2 3 2 2 5 9 1 4 8 14 22 4 2 8 21 21 25 14 14 9 12 13 14 14 14 14 14 13 12 10 8 6 4 3 3 4 5 5 5 4 4 4 4 6 7 6 6
11 7 3 3 4 6 4 5 10 15 8 4 5 12 5 13 26 24 23 17 12 10 12 13 13 15 15 16 16 15 14 12 10 7 5 2 2 3 4 5 4 4 4 6 7 7 7 7 7
7 4 6 2 9 11 15 11 6 6 30 14 13 2 12 16 12 16 18 18 10 10 12 13 14 15 17 18 18 17 17 14 11 9 5 3 2 3 4 4 4 5 6 7 8 8 10 9 9
3 4 3 5 9 12 17 14 18 8 14 6 25 4 9 17 16 14 13 14 14 9 9 13 15 17 18 19 19 19 18 16 14 11 9 6 5 6 8 7 7 6 7 9 10 12 12 13 14
2 6 2 6 12 18 17 21 16 15 24 22 5 15 9 15 13 8 10 12 13 19 14 16 17 19 21 21 22 21 20 19 17 15 13 11 9 10 10 10 10 8 9 11 12 13 14 15 16
4 4 6 8 13 20 16 21 15 5 13 8 1 5 17 19 12 12 12 8 19 21 23 20 22 20 22 24 25 25 24 23 21 19 17 15 14 13 12 12 12 9 9 9 10 12 13 14 15
12 3 6 6 12 19 20 20 13 10 2 5 13 2 12 16 11 7 6 10 13 23 26 26 24 24 24 28 29 29 28 27 25 23 21 19 18 16 14 14 12 11 9 10 13 14 14 14 16
21 5 8 10 13 16 28 14 17 14 19 12 5 4 4 2 8 9 8 6 12 25 27 30 30 26 27 28 31 31 31 31 29 27 26 24 23 19 16 15 11 12 11 11 12 14 10 9 12
17 8 17 17 14 15 24 21 23 10 10 7 14 16 22 21 12 7 3 5 13 16 21 31 30 31 30 28 29 34 34 34 34 32 31 29 26 22 18 16 11 10 11 12 11 9 8 6 7
18 19 17 22 26 31 28 25 29 18 7 14 9 18 30 27 34 16 7 6 12 21 26 24 28 29 32 32 28 30 35 37 37 35 35 32 29 24 19 15 11 12 10 12 11 10 9 8 5
19 27 27 30 32 34 26 33 25 27 21 26 29 22 26 23 21 16 18 17 21 26 23 18 19 25 31 36 35 31 30 30 36 38 37 35 32 25 18 15 15 15 13 12 9 10 12 11 10
24 20 28 32 31 35 38 32 28 31 37 36 30 35 35 30 34 33 25 21 18 26 28 21 20 18 27 36 41 35 32 27 25 25 27 33 33 23 19 20 20 18 16 15 10 10 15 14 14
21 21 29 29 32 35 27 29 31 33 39 35 32 35 36 33 30 29 31 25 22 26 21 19 21 22 27 36 43 39 34 29 24 23 20 23 23 19 18 20 17 16 16 15 19 19 19 20 19
27 21 21 26 30 27 34 30 31 34 34 33 33 37 40 37 37 39 36 31 30 21 16 21 25 23 27 32 41 39 34 29 26 23 20 21 23 17 19 20 20 21 21 20 19 21 24 22 18
17 16 22 22 20 29 22 40 13 28 31 29 33 39 33 31 34 32 36 39 34 25 18 24 28 24 25 25 41 36 29 26 23 21 21 23 20 20 21 20 22 21 20 21 22 21 20 20 18
13 21 24 26 23 19 15 28 20 33 32 34 38 42 40 41 39 35 27 23 26 24 20 23 24 24 25 23 33 42 32 28 25 26 26 23 18 20 20 19 19 19 20 22 22 21 20 18 17
11 21 26 29 12 14 21 27 30 43 32 34 37 38 39 41 43 35 28 28 28 24 23 17 23 24 25 24 31 37 38 29 25 24 23 17 17 18 18 16 14 18 21 21 22 21 18 16 16
13 21 20 18 18 16 21 23 25 21 18 19 26 27 30 34 31 28 24 19 25 21 17 19 24 25 26 27 30 33 31 29 25 25 15 17 18 17 15 14 19 22 22 22 20 16 15 16 15
20 25 24 15 14 16 22 20 24 22 19 28 35 34 35 33 28 23 22 16 21 23 19 20 21 23 25 27 26 22 23 25 21 20 20 18 19 19 18 19 21 21 23 19 16 15 14 13 13
25 27 19 21 13 23 16 15 17 17 21 25 26 31 25 23 19 19 21 27 24 25 21 20 16 21 24 22 18 18 16 14 14 20 18 18 19 20 18 17 19 19 18 13 13 12 11 11 12
24 14 20 21 13 19 6 17 21 17 19 16 26 28 35 35 35 33 32 26 18 22 18 15 16 23 21 19 17 18 20 17 17 16 16 17 20 17 19 17 14 14 14 11 8 8 7 10 12
24 13 18 16 14 15 20 9 27 10 12 9 8 26 35 24 26 30 32 26 23 21 17 14 15 18 20 17 21 17 21 16 12 14 14 13 16 17 16 15 13 8 6 7 7 7 8 12 13
18 17 21 14 9 12 20 14 30 16 19 5 10 24 25 28 30 25 17 23 25 18 16 15 17 20 21 20 18 19 18 11 15 12 10 10 11 13 14 12 7 4 5 6 7 9 9 8 8
14 14 8 9 10 17 11 11 20 7 12 15 15 23 29 32 14 23 29 29 25 21 17 16 23 28 23 21 17 18 18 14 15 16 14 13 11 9 8 7 6 4 4 5 5 7 6 6 5
13 11 10 14 14 16 11 11 7 15 17 25 32 30 7 10 27 32 32 29 25 20 18 26 28 25 26 20 18 18 15 14 13 10 9 7 6 4 5 6 4 3 3 3 4 5 4 4 5
21 18 13 17 18 5 8 9 24 24 23 15 12 12 25 31 33 33 31 27 25 21 24 30 24 24 26 19 15 12 9 9 8 7 7 4 1 6 6 4 4 5 4 5 4 3 5 3 2
13 10 5 10 16 16 8 13 10 17 14 22 10 13 27 34 34 32 28 28 25 23 25 24 21 23 20 16 12 9 11 6 4 3 5 6 9 8 2 4 5 5 6 5 4 5 4 4 4
7 14 12 7 11 13 8 10 16 20 21 14 11 28 33 38 35 33 33 29 25 26 25 22 21 21 18 13 13 11 9 8 6 3 7 10 8 5 4 4 4 4 3 2 3 4 3 3 4
15 18 15 10 8 12 6 11 7 8 7 12 19 31 36 39 37 34 34 31 29 28 23 22 21 19 17 13 13 11 7 8 6 5 9 11 9 9 6 9 5 4 3 1 3 4 2 0 3